FENGYUN 1C DEB, 31098

Orbit data source: Space-Track

FENGYUN 1C DEB, 31098 is space debris in SSO originally from a launch on Mon, 10 May 1999 UTC launched from the Taiyaun Space Center, China (TSC). Fengyun 1C debris stems from the Chinese weather satellite Fengyun-1C, which was intentionally destroyed by a Chinese anti-satellite missile in 2007. This event dramatically increased the amount of space debris, with thousands of trackable fragments posing hazards to satellites and human spaceflight. The Fengyun 1C debris cloud has become a focal point in discussions about space sustainability and the need for international regulations to prevent the creation of new debris.

Loading next visibility...
Identifier
31098, 1999-025BGU
Orbit
SSO
Country
Flag of CNCN / PRC
Related business
Manufacturer
Unknown
Mission
Spacecraft
Bus & Motor
Unknown
Mass
Unknown
Launch date (UTC)
1999-05-10 (27 years ago)
Launch vehicle
Unknown
Launch site
Taiyaun Space Center, China (TSC)
Object type
Payload
Rocket body
Debris
Shape & HBR
Unknown shape, 0.1 m
Radar Cross Section
Medium (>0.1 m² and <1 m²)

Expand to show TLE details & history
Last TLE update: 1 week ago

TLE from 1 week ago
0 FENGYUN 1C DEB
1 31098U 99025BGU 26154.60834837  .00011972  00000-0  27195-2 0  9999
2 31098  98.8761 287.8089 0014092  96.7137 263.5663 14.56086454994694
Epoch: 2026-06-03T14:36Z
TLE epoch observation values (Epoch: 2026-06-03T14:36:01.299Z)
Latitude
-0.00001°
Longitude
176.73897°
Altitude
709.93 km
Speed
7.5 km/s
True Right ascension
19h 11m 14s
True Declination
0° 00' 00"
Sunlit
Object was in full shadow at epoch
Visualization orbit readout
Latitude
Unknown
Longitude
Unknown
Altitude
Unknown
Speed
Unknown
Apparent Right ascension
Unknown
Apparent Declination
Unknown
Sunlit
N/A
Visualization observer readout
Local Sidereal Time
18:50:45
Azimuth
Unknown
Elevation
Unknown
Doppler factor
Unknown
Orbital elements
Apogee altitude
712.936 km
Perigee altitude
692.979 km
Semi-major axis
7,081.094 km
Eccentricity
0.00141
Inclination
98.8761°
RAAN
287.8089°
Arg. of periapsis
96.7137°
True anomaly
263.40587°
Mean anomaly
263.5663°
Eccentric anomaly
263.48608°
Mean motion
3.64244 °/min
Orbital period
98.83 mins
BSTAR
0.0027195
Loading maneuver chart data...
Computing Atmospheric mass density...

Documentation

Showing up to 5 results
|